Mitchell, SD

9:41 AM CDT on May 29, 2017 (GMT -0500)
Mitchell Municipal

Weather History for KMHE - November, 2013

Change the Weather History Date:

Sunday, November 3, 2013

  Actual Average Record
Temperature  
Mean Temperature 50 °F 42 °F  
Max Temperature 58 °F 52 °F 78 °F (1978)
Min Temperature 41 °F 31 °F 7 °F (1991)
Degree Days  
Heating Degree Days 15 24  
Month to date heating degree days 54 69  
Since 1 July heating degree days 637 710  
Cooling Degree Days 0 0  
Month to date cooling degree days 0 0  
Year to date cooling degree days 946 824  
Moisture  
Dew Point 33 °F    
Average Humidity 60    
Maximum Humidity 76    
Minimum Humidity 43    
Precipitation  
Precipitation 0.00 in 0.05 in 0.45 in (1906)
Month to date precipitation 0.01 0.14  
Year to date precipitation 25.28 20.43  
Snow  
Snow 0.00 in - 3.00 in (2003)
Month to date snowfall 0.0  
Since 1 July snowfall T  
Since 1 September snowfall T  
Snow Depth 0.00 in    
Sea Level Pressure  
Sea Level Pressure 29.72 in    
Wind  
Wind Speed 17 mph (SSE)    
Max Wind Speed 31 mph    
Max Gust Speed 41 mph    
Visibility 10 miles    
Events      
T = Trace of Precipitation, MM = Missing Value Source: NWS Daily Summary

Daily Weather History Graph

Daily Weather History Graph

Search for Another Location

Airport or City:

Trip Planner

Search our weather history database for the weather conditions in past years. The results will help you decide how hot, cold, wet, or windy it might be!

Date:

Astronomy

Nov. 03, 2013 Rise Set
Actual Time 7:11 AM CST 5:19 PM CST
Civil Twilight 6:41 AM CST 5:49 PM CST
Nautical Twilight 6:06 AM CST 6:23 PM CST
Astronomical Twilight 5:33 AM CST 6:57 PM CST
Moon 7:17 AM CST (11/3) 5:34 PM CST (11/3)
Length of Visible Light 11h 08m
Length of Day
10h 08m
New Moon, 0% of the Moon is Illuminated
Nov 3
New Moon
Nov 9
First Quarter
Nov 17
Full
Nov 25
Last Quarter
Dec 2
New

Hourly Weather History & Observations

Time (CST) Temp. Windchill Dew Point Humidity Pressure Visibility Wind Dir Wind Speed Gust Speed Precip Events Conditions
12:53 AM 41.0 °F 33.5 °F 30.9 °F 67% 29.95 in 10.0 mi SSE 13.8 mph - N/A   Clear
1:53 AM 41.0 °F 33.1 °F 30.9 °F 67% 29.92 in 10.0 mi SE 15.0 mph - N/A   Clear
1:53 AM 42.1 °F 34.5 °F 30.0 °F 62% 29.88 in 10.0 mi SSE 15.0 mph - N/A   Clear
2:53 AM 43.0 °F 34.5 °F 30.0 °F 60% 29.85 in 10.0 mi SSE 19.6 mph - N/A   Clear
3:53 AM 43.0 °F 34.2 °F 30.0 °F 60% 29.80 in 10.0 mi SSE 20.7 mph 29.9 mph N/A   Clear
4:53 AM 43.0 °F 33.5 °F 30.9 °F 62% 29.77 in 10.0 mi SSE 24.2 mph 32.2 mph N/A   Clear
5:53 AM 42.1 °F 34.5 °F 30.9 °F 65% 29.78 in 10.0 mi SSE 15.0 mph 25.3 mph N/A   Clear
6:53 AM 42.1 °F 33.3 °F 30.9 °F 65% 29.75 in 10.0 mi SSE 19.6 mph - N/A   Clear
7:53 AM 42.1 °F 33.9 °F 30.9 °F 65% 29.75 in 10.0 mi SSE 17.3 mph - N/A   Clear
8:53 AM 45.0 °F 36.6 °F 32.0 °F 60% 29.74 in 10.0 mi South 21.9 mph 31.1 mph N/A   Clear
9:53 AM 48.9 °F - 30.9 °F 50% 29.70 in 10.0 mi South 28.8 mph 40.3 mph N/A   Clear
10:53 AM 52.0 °F - 33.1 °F 49% 29.68 in 10.0 mi South 31.1 mph 40.3 mph N/A   Clear
11:53 AM 53.1 °F - 33.1 °F 47% 29.68 in 10.0 mi South 23.0 mph 34.5 mph N/A   Unknown
12:53 PM 55.9 °F - 34.0 °F 44% 29.64 in 10.0 mi South 23.0 mph 36.8 mph N/A   Clear
1:53 PM 57.0 °F - 35.1 °F 44% 29.61 in 10.0 mi South 25.3 mph 33.4 mph N/A   Unknown
2:53 PM 55.9 °F - 35.1 °F 45% 29.62 in 10.0 mi South 18.4 mph 27.6 mph N/A   Clear
3:53 PM 57.0 °F - 35.1 °F 44% 29.61 in 10.0 mi South 15.0 mph 23.0 mph N/A   Clear
4:53 PM 57.9 °F - 35.1 °F 42% 29.60 in 10.0 mi South 11.5 mph 23.0 mph N/A   Clear
5:53 PM 51.1 °F - 37.0 °F 59% 29.63 in 10.0 mi SSE 5.8 mph - N/A   Clear
6:53 PM 48.0 °F - 37.0 °F 66% 29.64 in 10.0 mi SSE 5.8 mph - N/A   Clear
7:53 PM 46.9 °F - 37.0 °F 68% 29.66 in 10.0 mi South 6.9 mph - N/A   Clear
8:53 PM 46.9 °F - 37.0 °F 68% 29.66 in 10.0 mi South 11.5 mph - N/A   Clear
9:53 PM 46.9 °F - 37.0 °F 68% 29.67 in 10.0 mi South 10.4 mph - N/A   Clear
10:53 PM 45.0 °F 40.6 °F 37.0 °F 74% 29.67 in 10.0 mi South 8.1 mph - N/A   Clear